Date,TemperatureHighF,TemperatureAvgF,TemperatureLowF,DewpointHighF,DewpointAvgF,DewpointLowF,HumidityHigh,HumidityAvg,HumidityLow,PressureMaxIn,PressureMinIn,WindSpeedMaxMPH,WindSpeedAvgMPH,GustSpeedMaxMPH,PrecipitationSumIn
2013-1-1,88,75,71,71,67,61,87,78,42,29.89,29.71,16,3,16,0.00
2013-1-2,75,72,68,69,65,60,90,80,72,30.06,29.73,27,8,27,0.00
2013-1-3,76,71,68,66,62,58,79,73,64,30.08,30.00,16,5,16,0.00
2013-1-4,78,73,68,67,64,62,82,74,60,30.03,29.92,21,5,22,0.00
2013-1-5,85,75,68,69,66,62,82,74,48,30.03,29.93,20,4,21,0.00
2013-1-6,79,74,69,70,68,65,90,81,69,30.18,30.02,13,2,13,0.00
2013-1-7,79,74,71,72,68,64,89,81,70,30.19,29.94,14,3,14,0.00
2013-1-8,104,88,69,65,58,48,83,43,18,29.93,29.40,28,3,28,0.00
2013-1-9,91,75,69,66,59,48,80,62,24,29.73,29.30,27,8,27,0.00
2013-1-10,74,72,70,66,63,59,84,76,69,29.87,29.72,11,3,11,0.00
2013-1-11,86,77,68,72,68,64,88,75,57,29.87,29.66,21,3,21,0.00
2013-1-12,108,83,71,71,67,60,87,65,21,29.90,29.65,25,6,25,0.00
2013-1-13,77,72,67,71,68,65,94,85,74,29.90,29.69,24,6,24,0.14
2013-1-14,70,68,65,67,60,55,91,75,60,30.13,29.82,28,12,28,0.16
2013-1-15,76,72,67,64,60,55,82,68,54,30.12,29.99,19,5,19,0.00
2013-1-16,79,73,63,69,64,60,89,76,59,29.99,29.83,19,2,19,0.00
2013-1-17,80,75,70,72,70,68,94,83,76,29.90,29.69,21,3,21,0.00
2013-1-18,112,90,72,75,67,60,91,56,20,29.71,29.45,36,4,36,0.05
2013-1-19,74,71,66,67,64,58,91,78,68,30.00,29.73,29,9,29,0.09
2013-1-20,70,69,67,68,66,63,94,92,81,30.04,29.95,15,2,15,0.61
2013-1-21,78,73,69,71,68,66,93,85,72,30.00,29.89,11,2,11,0.00
2013-1-22,84,75,68,74,69,65,91,82,63,29.88,29.75,21,3,21,0.03
2013-1-23,74,72,70,70,67,66,92,86,79,30.04,29.85,25,10,26,0.00
2013-1-24,76,72,69,71,68,66,92,88,82,30.04,29.93,24,7,24,0.02
2013-1-25,80,76,70,74,71,68,95,87,79,29.95,29.80,19,3,19,0.01
2013-1-26,83,77,74,74,72,70,91,83,65,29.90,29.80,22,5,22,0.19
2013-1-27,76,72,69,72,70,67,96,92,84,29.83,29.76,13,3,13,1.02
2013-1-28,72,70,68,70,69,66,97,95,94,29.81,29.64,27,5,27,3.02
2013-1-29,86,73,68,73,69,65,97,89,63,29.83,29.53,24,4,24,0.17
2013-1-30,75,71,68,69,67,66,93,87,77,29.98,29.84,14,4,14,0.00
2013-1-31,80,75,70,72,70,68,94,85,75,29.98,29.72,18,3,18,0.00
2013-2-1,87,72,65,74,68,62,93,87,54,29.74,29.65,27,6,27,0.65
2013-2-2,68,64,60,64,59,53,92,83,62,29.93,29.67,38,10,38,0.70
2013-2-3,72,66,60,63,57,53,85,73,60,30.06,29.87,27,8,27,0.04
2013-2-4,75,69,64,65,63,60,91,82,67,30.23,30.04,21,6,21,0.05
2013-2-5,76,70,65,67,64,61,89,81,71,30.25,30.17,12,3,12,0.00
2013-2-6,77,72,66,66,63,60,86,73,58,30.18,30.05,13,3,13,0.00
2013-2-7,80,72,64,68,63,59,85,73,52,30.08,29.98,19,3,19,0.00
2013-2-8,84,74,64,69,65,60,87,75,51,30.08,29.98,19,3,19,0.00
2013-2-9,86,76,68,71,67,63,87,76,48,30.04,29.88,17,3,17,0.00
2013-2-10,86,74,68,73,69,65,91,84,63,30.11,29.89,29,5,29,0.10
2013-2-11,73,69,66,68,66,64,93,89,81,30.10,30.02,21,5,21,0.05
2013-2-12,75,71,68,69,66,62,95,83,72,30.18,30.03,18,5,19,0.33
2013-2-13,77,72,69,63,61,58,80,68,56,30.23,30.14,14,2,14,0.00
2013-2-14,77,71,63,67,62,57,87,74,60,30.19,30.09,15,2,15,0.00
2013-2-15,75,70,67,67,65,63,92,82,68,30.18,30.10,13,3,13,0.02
2013-2-16,78,74,70,67,64,62,81,73,63,30.17,30.10,18,4,18,0.00
2013-2-17,78,73,70,67,62,58,83,68,56,30.17,30.10,14,3,14,0.05
2013-2-18,79,73,65,68,64,60,84,75,57,30.12,30.01,15,2,15,0.00
2013-2-19,79,73,66,71,67,62,90,81,70,30.02,29.92,11,2,11,0.00
2013-2-20,79,74,69,71,68,65,92,84,71,30.05,29.93,20,4,20,0.05
2013-2-21,78,74,70,71,68,65,91,83,75,30.06,29.99,23,5,23,0.21
2013-2-22,75,71,66,68,66,63,93,84,75,30.04,29.96,30,9,30,0.52
2013-2-23,74,71,69,71,69,65,96,93,86,29.96,29.73,33,12,33,1.95
2013-2-24,87,77,72,75,72,70,96,86,64,29.97,29.79,21,4,21,0.00
2013-2-25,83,76,72,73,71,69,92,84,70,30.07,29.94,18,4,18,0.00
2013-2-26,79,74,70,71,68,66,92,84,68,30.08,29.99,18,4,18,0.02
2013-2-27,82,74,70,68,66,63,86,78,53,30.03,29.85,20,3,20,0.00
2013-2-28,89,73,65,70,66,63,94,80,50,29.88,29.72,24,4,26,0.45
2013-3-1,68,65,64,67,63,61,96,93,87,30.03,29.75,34,14,34,4.18
2013-3-2,70,66,63,66,63,60,94,89,82,30.13,30.02,34,13,34,1.05
2013-3-3,74,71,68,66,65,63,91,80,73,30.15,30.07,22,9,22,0.03
2013-3-4,77,72,70,67,64,63,82,76,63,30.18,30.10,18,6,18,0.00
2013-3-5,78,74,70,68,65,63,83,76,64,30.17,30.10,16,4,16,0.00
2013-3-6,79,74,69,69,66,64,86,77,63,30.14,30.05,17,4,17,0.00
2013-3-7,79,72,65,69,65,62,93,78,63,30.14,30.04,17,3,17,0.00
2013-3-8,79,72,65,68,65,62,89,78,64,30.19,30.10,12,2,12,0.00
2013-3-9,79,74,70,69,66,63,85,76,64,30.17,30.08,16,3,16,0.00
2013-3-10,79,73,67,67,65,62,88,77,59,30.13,30.04,13,3,13,0.00
2013-3-11,79,74,70,70,67,65,88,79,68,30.15,30.06,12,2,12,0.00
2013-3-12,79,73,67,68,66,64,91,78,62,30.15,30.03,10,2,10,0.00
2013-3-13,79,72,65,68,65,62,91,77,62,30.04,29.84,16,3,16,0.00
2013-3-14,78,71,64,68,65,61,91,80,60,29.94,29.80,14,3,14,0.00
2013-3-15,73,70,68,70,68,66,93,90,86,30.04,29.92,17,5,20,0.17
2013-3-16,85,74,66,70,67,64,94,80,58,30.01,29.76,16,2,16,0.00
2013-3-17,71,69,66,69,59,51,93,71,55,30.09,29.75,31,11,31,0.01
2013-3-18,72,66,58,59,56,52,89,72,60,30.20,30.07,25,6,25,0.10
2013-3-19,74,69,60,62,59,55,87,72,58,30.28,30.17,12,3,12,0.00
2013-3-20,76,70,61,66,62,57,90,77,65,30.28,30.17,15,3,15,0.00
2013-3-21,82,72,63,68,62,55,84,73,43,30.19,29.94,17,3,17,0.00
2013-3-22,89,78,67,68,65,63,87,66,47,29.98,29.90,27,5,27,0.00
2013-3-23,88,78,74,71,66,62,89,68,49,30.03,29.91,18,2,18,0.00
2013-3-24,80,75,70,73,71,68,94,85,75,30.01,29.86,10,2,10,0.00
2013-3-25,77,74,71,71,66,54,92,77,49,30.09,29.94,17,4,17,0.00
2013-3-26,82,75,70,73,70,68,95,85,64,30.11,29.99,20,2,20,0.01
2013-3-27,85,76,68,72,68,65,90,79,62,30.10,29.99,17,3,17,0.00
2013-3-28,91,78,69,71,67,63,87,71,40,30.05,29.88,16,2,16,0.05
2013-3-29,72,68,64,69,57,50,94,68,56,30.10,29.91,22,6,22,0.10
2013-3-30,73,67,57,61,58,54,89,72,59,30.09,29.88,12,2,12,0.00
2013-3-31,79,70,63,63,59,52,89,71,42,30.00,29.80,20,4,20,0.00
2013-4-1,74,67,62,65,62,59,92,83,69,30.07,29.98,16,3,16,0.35
2013-4-2,76,69,60,64,59,53,93,73,45,30.03,29.93,14,3,14,0.00
2013-4-3,71,68,63,64,60,56,91,78,65,30.23,30.02,25,6,26,0.26
2013-4-4,71,66,60,63,60,57,95,82,64,30.40,30.23,18,4,18,0.71
2013-4-5,75,70,67,61,57,54,77,62,52,30.42,30.34,14,3,14,0.00
2013-4-6,72,67,61,63,60,58,92,80,68,30.37,30.24,14,2,14,0.03
2013-4-7,74,66,60,63,60,57,93,80,63,30.26,30.17,12,1,12,0.01
2013-4-8,74,66,57,65,59,54,93,79,64,30.28,30.19,11,2,11,0.00
2013-4-9,73,66,62,64,61,59,90,82,70,30.30,30.22,17,2,17,0.00
2013-4-10,73,67,58,62,60,56,94,77,63,30.27,30.17,9,1,9,0.00
2013-4-11,77,67,58,63,59,54,90,76,56,30.25,30.16,11,2,11,0.00
2013-4-12,76,70,63,64,62,59,89,75,61,30.30,30.19,12,2,12,0.00
2013-4-13,77,68,60,64,61,56,90,76,57,30.19,30.00,12,2,12,0.00
2013-4-14,80,69,58,65,61,56,93,78,55,29.99,29.86,8,1,8,0.00
2013-4-15,85,69,58,68,61,56,93,79,43,29.86,29.74,17,2,17,0.00
2013-4-16,71,67,63,64,62,60,91,84,75,29.97,29.82,19,5,19,0.05
2013-4-17,72,67,60,63,60,57,92,80,67,30.01,29.92,15,4,15,0.00
2013-4-18,76,68,62,63,60,58,90,77,60,29.96,29.88,14,3,14,0.00
2013-4-19,69,64,60,58,50,41,85,62,46,29.96,29.86,23,6,23,0.00
2013-4-20,66,60,57,60,54,41,94,83,52,29.99,29.83,35,7,35,1.03
2013-4-21,67,61,55,56,53,50,86,75,61,30.01,29.90,20,3,20,0.00
2013-4-22,78,65,57,61,55,51,89,73,42,29.89,29.75,14,2,14,0.01
2013-4-23,76,65,53,56,51,46,86,63,39,30.00,29.86,16,2,16,0.00
2013-4-24,73,63,53,54,52,48,88,68,44,30.10,30.00,9,2,9,0.00
2013-4-25,69,62,53,54,52,48,88,70,50,30.19,30.08,12,2,13,0.00
2013-4-26,79,64,53,58,51,45,87,64,38,30.23,30.11,12,2,12,0.00
2013-4-27,78,64,52,60,54,49,88,71,42,30.20,30.06,9,2,9,0.00
2013-4-28,83,69,55,57,51,46,89,58,28,30.13,30.02,15,3,15,0.00
2013-4-29,75,66,56,67,57,47,92,74,44,30.22,30.10,8,2,8,0.00
2013-4-30,72,68,66,67,65,64,95,90,83,30.27,30.18,17,5,17,0.01
2013-5-1,84,70,62,64,61,55,96,76,39,30.16,29.92,21,4,21,0.01
2013-5-2,68,64,60,60,54,48,80,69,57,30.33,30.06,27,11,27,0.00
2013-5-3,72,64,53,55,52,48,88,68,44,30.33,30.12,17,2,17,0.00
2013-5-4,78,65,54,60,50,46,83,62,34,30.23,30.00,26,6,26,0.00
2013-5-5,66,63,58,53,50,48,70,64,56,30.25,30.17,18,8,22,0.00
2013-5-6,66,60,56,57,53,49,90,78,69,30.31,30.22,18,6,18,0.19
2013-5-7,70,62,56,60,56,53,93,82,64,30.39,30.28,10,1,10,0.00
2013-5-8,69,63,56,61,57,54,93,82,68,30.44,30.35,10,1,10,0.08
2013-5-9,70,62,53,60,56,51,94,81,65,30.44,30.35,8,1,8,0.01
2013-5-10,70,61,50,61,55,48,93,81,67,30.45,30.35,10,3,10,0.00
2013-5-11,72,65,58,63,60,55,92,83,71,30.42,30.34,15,2,15,0.00
2013-5-12,70,63,53,62,58,51,93,83,69,30.34,30.19,9,2,9,0.00
2013-5-13,71,62,54,59,56,52,95,81,58,30.17,29.95,11,2,11,0.00
2013-5-14,64,61,58,58,56,51,92,85,73,29.94,29.86,10,2,10,0.07
2013-5-15,68,58,48,47,44,41,86,61,43,29.98,29.84,18,3,18,0.00
2013-5-16,71,62,56,50,47,45,68,58,41,29.90,29.77,22,3,22,0.00
2013-5-17,69,59,52,48,44,39,82,60,36,29.95,29.84,18,3,18,0.00
2013-5-18,67,58,49,45,42,39,73,57,40,29.99,29.89,14,2,14,0.00
2013-5-19,66,57,47,42,40,39,75,56,40,30.06,29.97,14,2,14,0.00
2013-5-20,67,56,46,47,42,38,75,60,39,30.10,29.99,14,2,14,0.00
2013-5-21,73,62,51,48,45,42,77,56,37,30.04,29.91,17,3,17,0.00
2013-5-22,63,60,56,55,50,44,88,71,58,29.98,29.80,14,3,14,0.09
2013-5-23,66,60,53,57,54,51,95,81,63,29.97,29.79,30,9,30,0.91
2013-5-24,67,65,60,57,54,48,88,70,56,30.09,29.95,31,14,31,0.18
2013-5-25,66,61,54,56,53,49,88,76,59,30.25,30.11,23,5,23,0.11
2013-5-26,72,57,47,51,48,44,93,74,37,30.30,30.21,10,2,10,0.01
2013-5-27,63,54,46,58,51,43,95,91,83,30.43,30.26,3,2,12,0.28
2013-5-28,67,59,53,60,56,52,96,88,73,30.51,30.41,4,1,11,0.00
2013-5-29,72,62,56,58,55,53,91,77,52,30.47,30.36,3,1,10,0.00
2013-5-30,72,60,49,57,53,47,95,81,55,30.42,30.31,5,2,10,0.00
2013-5-31,74,61,50,60,55,48,94,82,53,30.38,30.25,5,2,11,0.00
2013-6-1,69,60,53,60,55,52,94,85,64,30.23,29.96,5,2,13,0.03
2013-6-2,62,57,54,59,54,48,94,90,73,29.99,29.67,34,5,36,0.64
2013-6-3,64,58,54,51,46,44,87,67,56,30.17,29.99,27,5,27,0.01
2013-6-4,66,58,51,55,49,42,88,71,60,30.31,30.20,19,3,19,0.00
2013-6-5,67,56,48,56,51,46,95,85,66,30.32,30.20,9,2,9,0.00
2013-6-6,66,59,52,55,53,50,94,82,63,30.25,30.15,9,2,9,0.00
2013-6-7,71,63,58,61,57,51,90,80,65,30.25,30.08,16,2,16,0.00
2013-6-8,64,61,58,57,54,50,93,77,62,30.44,30.29,23,4,23,0.13
2013-6-9,67,59,49,58,53,47,93,82,62,30.38,30.22,7,0,7,0.00
2013-6-10,70,58,48,58,53,47,95,86,64,30.21,30.08,11,3,11,0.02
2013-6-11,71,60,51,56,53,49,93,79,53,30.16,30.05,9,1,9,0.01
2013-6-12,67,58,53,59,55,50,95,91,74,30.05,29.80,17,1,17,0.24
2013-6-13,67,58,52,56,52,50,96,81,58,29.80,29.69,21,3,21,0.01
2013-6-14,65,58,54,51,49,46,85,73,57,29.75,29.65,26,6,26,0.00
2013-6-15,65,59,54,49,47,44,79,65,51,29.91,29.73,21,4,21,0.02
2013-6-16,64,57,49,47,44,42,79,63,52,29.97,29.87,15,2,15,0.00
2013-6-17,62,54,46,49,45,40,84,72,60,29.86,29.76,15,3,15,0.00
2013-6-18,64,57,47,51,44,41,80,64,49,29.99,29.85,26,4,26,0.02
2013-6-19,60,54,50,51,48,46,90,82,70,30.22,30.01,28,7,28,0.20
2013-6-20,60,54,51,51,48,45,87,81,71,30.24,30.13,15,4,15,0.10
2013-6-21,62,55,51,52,48,46,84,78,67,30.17,30.08,15,4,15,0.00
2013-6-22,60,55,50,52,49,45,89,80,70,30.30,30.17,18,5,18,0.07
2013-6-23,60,55,52,55,52,49,94,90,78,30.36,30.26,29,3,29,0.43
2013-6-24,64,55,51,52,50,48,94,84,60,30.22,29.99,14,1,14,0.00
2013-6-25,61,53,46,50,46,43,90,79,61,30.02,29.96,8,2,8,0.00
2013-6-26,66,61,48,59,56,45,95,84,75,30.13,29.99,33,9,33,0.16
2013-6-27,65,62,58,59,57,54,91,84,72,30.18,30.11,20,4,20,0.30
2013-6-28,63,58,55,59,56,53,94,92,85,30.24,30.15,14,2,14,0.28
2013-6-29,61,58,56,57,55,53,95,90,84,30.26,30.17,14,3,14,0.32
2013-6-30,62,57,54,56,54,49,95,90,65,30.25,30.19,19,4,19,0.62
2013-7-1,62,58,55,58,55,53,93,89,85,30.23,30.16,16,5,16,0.65
2013-7-2,64,58,52,55,52,48,91,78,69,30.24,30.15,16,3,16,0.01
2013-7-3,67,55,45,53,50,44,96,83,56,30.26,30.16,9,2,9,0.01
2013-7-4,73,57,44,54,49,42,95,76,48,30.13,29.91,22,4,22,0.01
2013-7-5,71,61,50,52,46,33,90,61,39,30.04,29.84,21,2,21,0.00
2013-7-6,62,53,44,40,36,31,71,54,40,30.22,30.07,18,2,18,0.00
2013-7-7,64,52,43,45,39,35,75,61,39,30.39,30.25,10,2,10,0.00
2013-7-8,65,52,40,46,41,37,89,69,41,30.49,30.39,11,2,11,0.00
2013-7-9,58,54,47,52,49,42,90,83,71,30.57,30.45,19,4,19,0.14
2013-7-10,61,55,51,54,51,48,93,87,75,30.54,30.45,9,1,9,0.00
2013-7-11,63,56,46,54,51,45,95,83,71,30.56,30.47,9,2,9,0.01
2013-7-12,64,53,44,54,49,42,96,87,68,30.48,30.34,10,2,10,0.01
2013-7-13,64,55,45,56,50,44,95,86,74,30.40,30.32,9,1,9,0.01
2013-7-14,65,55,45,56,50,44,95,85,70,30.37,30.28,5,1,5,0.01
2013-7-15,66,59,53,58,54,51,94,86,72,30.28,30.20,9,1,9,0.00
2013-7-16,71,61,55,58,55,53,94,83,58,30.28,30.20,12,2,14,0.00
2013-7-17,73,62,53,60,55,51,94,80,55,30.26,30.16,11,2,11,0.00
2013-7-18,71,60,51,61,56,49,95,85,68,30.23,30.10,10,2,10,0.00
2013-7-19,71,62,55,58,56,53,93,84,59,30.08,29.91,16,2,16,0.02
2013-7-20,68,60,55,57,51,38,94,73,42,29.90,29.72,21,3,21,0.01
2013-7-21,61,53,45,40,37,33,78,55,35,30.08,29.92,26,2,26,0.00
2013-7-22,63,52,41,42,36,34,80,57,36,30.15,30.04,22,2,22,0.00
2013-7-23,64,53,45,43,39,35,71,59,43,30.17,30.07,15,3,15,0.00
2013-7-24,60,56,53,51,45,40,74,66,58,30.36,30.19,28,8,28,0.00
2013-7-25,64,57,51,49,46,43,79,67,52,30.41,30.32,15,2,15,0.00
2013-7-26,67,54,44,47,43,39,92,69,41,30.34,30.23,15,3,16,0.00
2013-7-27,64,55,44,54,48,39,86,77,61,30.44,30.33,12,2,12,0.00
2013-7-28,66,54,44,56,50,42,95,85,66,30.43,30.30,10,2,10,0.00
2013-7-29,72,58,46,59,51,44,94,78,48,30.32,30.16,11,2,11,0.01
2013-7-30,71,60,49,57,51,45,89,74,46,30.15,30.05,11,3,11,0.00
2013-7-31,64,60,55,56,53,50,93,79,65,30.22,30.11,22,9,22,0.46
2013-8-1,64,58,53,53,50,48,87,76,65,30.21,30.12,13,4,13,0.00
2013-8-2,70,56,44,54,47,43,94,74,42,30.12,29.92,19,2,19,0.01
2013-8-3,67,58,50,45,42,40,75,56,41,30.04,29.90,17,3,17,0.00
2013-8-4,67,57,48,47,42,36,74,58,44,30.03,29.89,22,3,22,0.00
2013-8-5,67,56,47,44,41,38,73,58,41,30.10,29.96,18,3,19,0.00
2013-8-6,73,61,48,45,42,40,75,53,33,30.03,29.81,26,4,26,0.00
2013-8-7,64,59,54,54,49,42,89,69,57,29.93,29.79,14,3,14,0.05
2013-8-8,58,53,49,50,46,39,95,81,52,29.97,29.70,29,4,29,0.12
2013-8-9,66,58,51,46,43,40,69,57,45,30.09,29.94,17,3,17,0.00
2013-8-10,76,63,56,54,44,40,70,51,34,30.02,29.94,19,3,19,0.00
2013-8-11,71,59,47,54,46,38,83,64,31,30.08,29.93,10,1,10,0.00
2013-8-12,80,63,51,53,47,41,82,58,28,29.90,29.61,28,4,28,0.00
2013-8-13,71,58,48,42,38,32,77,48,29,30.01,29.89,19,3,19,0.00
2013-8-14,73,61,52,40,36,33,59,42,23,30.00,29.80,20,4,20,0.00
2013-8-15,61,59,51,44,37,31,62,45,34,30.19,29.81,24,6,24,0.00
2013-8-16,67,55,41,54,44,36,85,68,37,30.24,30.01,17,4,17,0.00
2013-8-17,74,62,51,55,50,37,87,68,37,29.95,29.76,29,4,29,0.00
2013-8-18,72,60,50,43,39,36,63,47,28,30.08,29.91,22,4,22,0.00
2013-8-19,73,61,49,41,38,35,62,44,30,29.94,29.72,25,4,25,0.00
2013-8-20,63,54,45,36,31,26,62,44,28,30.02,29.86,17,3,17,0.00
2013-8-21,64,52,42,41,36,30,67,55,37,30.03,29.93,14,2,14,0.00
2013-8-22,66,55,45,39,37,35,71,53,36,30.01,29.86,17,3,17,0.00
2013-8-23,69,59,52,44,41,39,62,52,38,29.94,29.82,22,4,22,0.00
2013-8-24,69,61,54,54,49,43,77,65,45,30.21,29.97,15,4,15,0.00
2013-8-25,76,61,47,56,48,40,92,66,29,30.27,30.12,16,3,16,0.00
2013-8-26,65,60,54,54,49,43,82,67,53,30.26,30.13,14,2,14,0.00
2013-8-27,68,60,50,57,51,47,91,74,51,30.19,30.07,9,2,9,0.00
2013-8-28,70,60,48,58,52,46,92,76,49,30.22,30.09,14,3,14,0.00
2013-8-29,68,60,50,60,55,48,93,83,68,30.26,30.09,14,3,16,0.00
2013-8-30,83,71,61,58,54,43,83,58,34,30.06,29.88,19,3,19,0.00
2013-8-31,77,66,57,59,50,42,77,57,31,30.25,30.03,15,2,15,0.00
2013-9-1,69,61,51,62,56,48,90,83,69,30.39,30.26,9,2,9,0.00
2013-9-2,70,63,54,58,56,50,93,79,59,30.47,30.36,9,2,9,0.00
2013-9-3,68,63,55,62,57,52,92,82,72,30.54,30.44,9,2,9,0.01
2013-9-4,69,63,54,59,56,50,89,77,61,30.53,30.37,16,3,16,0.00
2013-9-5,83,66,51,60,53,48,92,67,31,30.39,30.23,14,2,14,0.00
2013-9-6,76,67,63,64,57,48,92,72,47,30.32,30.21,12,3,12,0.00
2013-9-7,86,72,59,63,52,43,92,56,23,30.23,30.08,19,4,19,0.00
2013-9-8,70,66,64,64,62,60,92,85,76,30.27,30.19,14,4,19,0.00
2013-9-9,77,69,65,65,63,61,90,82,60,30.24,29.90,11,2,11,0.00
2013-9-10,86,75,63,61,51,44,89,49,25,29.85,29.58,36,6,36,0.00
2013-9-11,79,69,60,58,41,33,73,39,20,29.93,29.75,16,2,16,0.00
2013-9-12,70,63,56,54,46,40,73,53,36,30.00,29.85,26,2,26,0.00
2013-9-13,63,59,53,53,49,46,80,71,62,30.18,30.05,23,4,23,0.00
2013-9-14,78,65,58,61,57,52,90,75,46,29.98,29.76,24,6,24,0.17
2013-9-15,66,62,57,58,55,52,86,78,68,30.10,29.96,14,4,15,0.00
2013-9-16,66,62,58,60,57,52,94,83,74,30.06,29.71,18,4,18,0.23
2013-9-17,73,64,56,60,56,51,94,75,49,29.63,29.52,21,4,21,0.26
2013-9-18,78,68,59,55,51,44,82,58,32,29.66,29.56,27,4,27,0.00
2013-9-19,76,66,57,52,43,38,76,45,27,29.78,29.61,21,3,21,0.00
2013-9-20,74,62,52,44,40,31,66,46,21,29.89,29.69,21,4,21,0.00
2013-9-21,67,60,50,53,46,41,74,60,45,29.98,29.89,14,3,14,0.00
2013-9-22,70,61,49,58,52,46,88,74,54,30.00,29.89,10,2,10,0.01
2013-9-23,88,70,55,57,50,39,86,57,19,29.94,29.71,20,2,20,0.00
2013-9-24,80,69,61,61,50,40,71,51,27,29.77,29.54,13,2,13,0.00
2013-9-25,88,73,60,60,51,45,61,46,24,29.84,29.73,17,3,17,0.00
2013-9-26,94,75,58,55,44,27,75,39,13,29.97,29.60,29,4,29,0.00
2013-9-27,68,63,52,52,42,33,69,46,32,30.15,30.01,13,3,13,0.00
2013-9-28,89,71,51,53,40,25,88,44,11,29.96,29.71,26,4,26,0.00
2013-9-29,70,65,55,57,47,36,78,53,35,30.06,29.92,12,3,12,0.00
2013-9-30,85,68,52,57,50,34,89,58,17,30.06,29.86,19,3,21,0.00
2013-10-1,92,69,60,64,53,45,81,57,30,29.89,29.61,30,4,30,0.11
2013-10-2,79,68,53,52,44,35,73,45,22,30.04,29.78,23,4,23,0.00
2013-10-3,70,61,55,50,44,40,80,56,36,30.11,29.72,24,4,24,0.09
2013-10-4,56,53,52,44,43,42,71,69,62,30.15,30.12,15,4,17,0.00
2013-10-5,86,67,49,58,48,39,91,58,21,30.11,29.83,7,3,20,0.00
2013-10-6,91,77,58,53,41,32,72,32,13,29.88,29.63,7,3,18,0.00
2013-10-7,73,66,63,61,53,36,80,64,26,29.94,29.66,13,8,25,0.00
2013-10-8,69,63,58,58,54,52,81,72,61,30.11,29.89,16,3,17,0.00
2013-10-9,86,67,50,59,50,40,91,61,20,30.13,29.90,15,3,15,0.00
2013-10-10,94,79,60,45,42,35,52,30,14,29.94,29.62,31,5,31,0.00
2013-10-11,80,67,64,62,57,42,85,71,27,30.00,29.60,36,6,36,0.00
2013-10-12,80,68,56,67,60,53,91,76,49,30.02,29.76,17,2,17,0.00
2013-10-13,96,80,65,63,52,30,87,48,10,29.74,29.41,36,6,36,0.01
2013-10-14,66,61,57,61,49,43,91,65,44,30.13,29.66,20,5,22,0.27
2013-10-15,72,62,50,53,43,36,64,51,30,30.23,30.07,17,3,17,0.00
2013-10-16,84,66,50,57,45,33,77,51,18,30.14,29.91,19,4,19,0.00
2013-10-17,93,76,58,54,45,25,68,39,10,29.99,29.63,33,5,33,0.00
2013-10-18,70,64,61,52,46,33,68,52,27,30.36,30.05,28,6,28,0.00
2013-10-19,70,64,52,60,53,47,85,69,51,30.37,30.23,15,3,15,0.00
2013-10-20,80,69,61,66,62,58,90,78,51,30.23,29.98,19,3,20,0.00
2013-10-21,94,76,61,66,59,45,91,62,21,30.02,29.87,15,3,15,0.00
2013-10-22,75,70,68,67,65,58,94,83,67,29.99,29.83,19,4,19,0.00
2013-10-23,96,80,68,67,59,38,93,57,16,29.82,29.59,30,4,30,0.00
2013-10-24,83,71,63,60,48,30,76,49,16,30.13,29.83,25,4,25,0.00
2013-10-25,68,63,56,56,44,33,70,51,32,30.23,30.08,18,4,18,0.00
2013-10-26,71,64,56,57,49,36,76,60,29,30.19,30.08,19,5,19,0.00
2013-10-27,71,66,59,59,56,51,79,70,55,30.22,30.10,14,3,16,0.00
2013-10-28,72,68,65,64,60,57,84,76,60,30.17,29.88,11,2,11,0.00
2013-10-29,90,68,60,62,59,56,92,74,36,29.99,29.66,33,6,33,1.17
2013-10-30,67,63,58,56,54,52,87,72,61,30.13,29.97,23,6,23,0.01
2013-10-31,70,64,54,58,54,50,88,72,56,30.19,30.08,15,3,15,0.00
2013-11-1,71,67,65,60,59,57,79,74,67,30.24,30.11,16,5,16,0.00
2013-11-2,90,71,59,65,60,53,91,72,30,30.13,29.86,18,3,18,0.00
2013-11-3,95,75,62,64,52,39,88,55,15,30.10,29.71,32,6,32,0.01
2013-11-4,63,62,60,51,47,42,67,59,47,30.33,30.07,26,11,26,0.00
2013-11-5,68,63,60,54,51,44,72,64,53,30.36,30.28,21,8,21,0.00
2013-11-6,70,65,57,58,53,48,77,65,54,30.29,30.07,18,3,18,0.00
2013-11-7,82,68,57,64,59,52,86,73,45,30.08,29.87,18,3,18,0.00
2013-11-8,90,75,62,66,60,55,86,62,34,29.91,29.68,21,3,21,0.00
2013-11-9,98,76,66,67,61,53,87,64,25,29.94,29.62,26,6,26,0.00
2013-11-10,70,65,62,60,58,55,91,77,67,30.05,29.94,23,9,23,0.20
2013-11-11,68,65,62,64,62,59,95,89,80,30.04,29.92,23,7,23,1.77
2013-11-12,70,65,61,65,62,59,96,88,77,29.96,29.86,15,2,15,0.09
2013-11-13,74,68,58,66,62,57,97,82,59,29.97,29.84,17,2,17,0.01
2013-11-14,73,69,63,65,58,51,92,68,48,29.97,29.85,14,3,14,0.00
2013-11-15,74,70,67,64,61,59,83,75,66,29.99,29.92,15,5,15,0.00
2013-11-16,70,66,59,62,58,55,89,78,63,29.99,29.92,19,8,23,0.19
2013-11-17,64,60,58,60,57,54,95,90,75,29.96,29.91,30,7,30,2.31
2013-11-18,70,65,61,65,61,58,95,87,71,29.91,29.74,32,10,32,2.48
2013-11-19,71,66,61,65,62,58,93,87,75,29.86,29.80,22,6,24,0.06
2013-11-20,74,68,60,68,64,59,96,87,74,29.90,29.82,12,2,12,0.01
2013-11-21,75,71,67,68,66,64,92,84,75,29.91,29.79,23,5,23,0.00
2013-11-22,73,69,66,68,65,63,92,87,81,29.89,29.70,24,5,24,0.82
2013-11-23,74,67,63,68,63,60,96,89,72,29.74,29.61,14,1,14,0.22
2013-11-24,72,65,60,64,56,-100,94,78,66,29.78,29.61,14,-26,14,0.01
2013-11-25,72,66,61,63,59,52,89,78,64,29.94,29.72,33,6,33,0.19
2013-11-26,70,65,58,57,54,51,83,67,56,30.06,29.91,22,6,22,0.02
2013-11-27,72,67,60,60,56,51,77,68,55,30.07,29.95,14,4,14,0.00
2013-11-28,82,72,60,68,62,57,89,73,52,29.98,29.62,15,3,15,0.00
2013-11-29,74,68,62,66,62,55,94,84,61,29.94,29.51,28,7,28,0.79
2013-11-30,69,65,60,61,57,53,88,75,64,30.21,29.92,17,5,17,0.05
2013-12-1,72,66,59,61,57,54,89,74,63,30.28,30.18,10,2,10,0.02
2013-12-2,73,68,59,59,56,54,83,67,54,30.25,30.08,13,2,13,0.00
2013-12-3,75,68,60,62,59,55,87,72,53,30.09,29.87,17,3,17,0.00
2013-12-4,86,74,61,68,62,57,89,68,47,29.87,29.47,14,2,14,0.00
2013-12-5,84,71,58,70,56,37,92,62,28,29.75,29.39,40,4,40,0.05
2013-12-6,70,63,54,52,45,36,68,53,31,30.08,29.75,18,4,18,0.00
2013-12-7,73,67,56,61,56,51,85,70,58,30.15,30.07,13,2,13,0.00
2013-12-8,76,71,64,65,61,57,86,71,54,30.11,29.89,16,3,16,0.00
2013-12-9,91,77,64,68,62,58,81,63,35,29.89,29.60,18,2,18,0.00
2013-12-10,94,81,72,67,64,56,85,58,29,29.74,29.56,22,3,24,0.02
2013-12-11,77,72,68,68,66,63,92,81,70,29.82,29.66,16,3,16,0.00
2013-12-12,77,72,66,68,65,62,92,80,71,29.87,29.78,17,4,17,0.00
2013-12-13,80,72,66,70,66,62,90,81,62,29.90,29.80,20,4,21,0.00
2013-12-14,76,71,67,69,65,61,94,83,70,30.06,29.80,26,6,26,0.00
2013-12-15,75,70,64,65,63,61,90,79,68,30.11,30.01,13,2,13,0.00
2013-12-16,76,71,68,66,64,61,84,77,70,30.17,30.07,15,4,15,0.00
2013-12-17,76,71,66,66,63,60,84,75,66,30.18,30.09,19,4,19,0.00
2013-12-18,77,72,67,66,63,60,85,75,63,30.25,30.13,12,3,12,0.00
2013-12-19,76,72,66,66,63,61,83,75,65,30.20,30.05,22,5,22,0.00
2013-12-20,99,78,66,70,65,58,85,66,26,30.05,29.85,13,2,13,0.00
2013-12-21,79,74,70,69,68,66,92,82,65,30.02,29.84,29,7,29,0.00
2013-12-22,90,78,70,73,69,65,94,75,57,30.00,29.77,13,3,13,0.00
2013-12-23,95,82,71,70,64,57,89,58,31,29.86,29.67,31,4,32,0.02
2013-12-24,71,69,65,68,64,62,94,85,78,30.13,29.86,27,6,27,0.06
2013-12-25,70,69,68,67,66,63,94,90,82,30.11,29.92,15,2,15,0.20
2013-12-26,75,70,67,67,66,64,96,86,73,29.92,29.80,18,4,18,0.07
2013-12-27,75,70,65,68,65,62,92,83,76,29.93,29.83,11,3,11,0.02
2013-12-28,76,72,68,68,66,63,86,80,74,29.92,29.69,19,4,19,0.00
2013-12-29,73,70,68,68,63,57,91,79,68,30.01,29.58,35,9,35,0.00
2013-12-30,74,70,66,60,58,55,76,66,56,30.01,29.86,14,4,14,0.00
2013-12-31,77,71,63,68,64,59,88,79,65,30.02,29.84,10,2,10,0.00
2014-1-1,77,73,68,68,66,64,91,79,70,30.01,29.80,20,4,20,0.00
2014-1-2,100,82,72,71,64,51,91,62,20,29.75,29.58,22,4,22,0.00